TRA52X LIPQ-EHRD

Flight info

Callsign TRA52X
Flight time 1h 37m
Altitude 18000
Route LUPIN P125 URAVA/N0439F380 DCT VEKEN DCT UMVEG DCT KPT DCT MOMUK DCT USUDO DCT LIRSU DCT SOGRI L608 BUB Y28 HELEN
Aircraft B738/M-SDE2E3FGHIJ1RWXY/LB1

Departure

Time 2026-05-06 12:26
Airport Trieste Airport (LIPQ)

Arrival

Time 2026-05-06 14:04
Airport Rotterdam The Hague Airport (EHRD)
Time Latitude Longitude Altitude Speed Heading
2026-05-06 12:01 45.82183 13.48397 44 ft 0 kts 171°
2026-05-06 12:16 45.82185 13.48396 45 ft 3 kts 171°
2026-05-06 12:16 45.82210 13.48388 43 ft 4 kts 156°
2026-05-06 12:16 45.82232 13.48368 41 ft 4 kts 124°
2026-05-06 12:17 45.82238 13.48339 45 ft 1 kts 79°
2026-05-06 12:19 45.82242 13.48345 45 ft 2 kts 42°
2026-05-06 12:19 45.82254 13.48332 42 ft 4 kts 290°
2026-05-06 12:20 45.82256 13.48297 43 ft 6 kts 275°
2026-05-06 12:20 45.82273 13.48241 43 ft 6 kts 312°
2026-05-06 12:20 45.82305 13.48199 45 ft 6 kts 320°
2026-05-06 12:20 45.82339 13.48160 45 ft 7 kts 320°
2026-05-06 12:21 45.82398 13.48088 45 ft 14 kts 320°
2026-05-06 12:21 45.82472 13.47997 44 ft 14 kts 319°
2026-05-06 12:21 45.82543 13.47909 44 ft 13 kts 319°
2026-05-06 12:21 45.82598 13.47803 44 ft 14 kts 291°
2026-05-06 12:22 45.82614 13.47645 45 ft 18 kts 269°
2026-05-06 12:22 45.82614 13.47449 45 ft 21 kts 269°
2026-05-06 12:22 45.82616 13.47236 45 ft 21 kts 270°
2026-05-06 12:22 45.82617 13.47029 45 ft 20 kts 270°
2026-05-06 12:23 45.82616 13.46829 45 ft 20 kts 269°
2026-05-06 12:23 45.82618 13.46634 44 ft 19 kts 270°
2026-05-06 12:23 45.82619 13.46445 44 ft 19 kts 272°
2026-05-06 12:23 45.82621 13.46262 44 ft 19 kts 270°
2026-05-06 12:24 45.82622 13.46057 45 ft 23 kts 271°
2026-05-06 12:24 45.82624 13.45808 45 ft 27 kts 270°
2026-05-06 12:24 45.82625 13.45630 42 ft 11 kts 277°
2026-05-06 12:24 45.82684 13.45580 45 ft 11 kts 358°
2026-05-06 12:25 45.82757 13.45578 47 ft 9 kts 354°
2026-05-06 12:25 45.82794 13.45613 46 ft 8 kts 96°
2026-05-06 12:25 45.82794 13.45632 47 ft 1 kts 89°
2026-05-06 12:25 45.82792 13.45988 44 ft 77 kts 91°
2026-05-06 12:26 45.82784 13.47120 47 ft 147 kts 90°
2026-05-06 12:26 45.82795 13.48712 599 ft 160 kts 92°
2026-05-06 12:26 45.82674 13.50283 1360 ft 165 kts 117°
2026-05-06 12:26 45.81870 13.51448 2116 ft 170 kts 150°
2026-05-06 12:27 45.80772 13.52298 2678 ft 187 kts 165°
2026-05-06 12:27 45.79434 13.52389 3061 ft 203 kts 197°
2026-05-06 12:27 45.78229 13.51230 3377 ft 228 kts 232°
2026-05-06 12:27 45.77685 13.48990 3981 ft 249 kts 258°
2026-05-06 12:28 45.77492 13.46543 4928 ft 252 kts 261°
2026-05-06 12:28 45.77338 13.44033 5857 ft 254 kts 262°
2026-05-06 12:28 45.76969 13.41573 6783 ft 254 kts 243°
2026-05-06 12:28 45.76044 13.39426 7769 ft 255 kts 234°
2026-05-06 12:29 45.75011 13.37304 8749 ft 258 kts 233°
2026-05-06 12:29 45.73979 13.35178 9649 ft 262 kts 233°
2026-05-06 12:29 45.72933 13.33015 10399 ft 269 kts 233°
2026-05-06 12:29 45.71852 13.30773 11083 ft 277 kts 233°
2026-05-06 12:30 45.70749 13.28479 11907 ft 281 kts 234°
2026-05-06 12:30 45.69935 13.25919 12760 ft 289 kts 255°
2026-05-06 12:30 45.69833 13.23008 13662 ft 299 kts 272°
2026-05-06 12:30 45.70373 13.20101 14478 ft 310 kts 289°
2026-05-06 12:31 45.71592 13.17488 15287 ft 324 kts 309°
2026-05-06 12:31 45.73477 13.15603 16075 ft 341 kts 332°
2026-05-06 12:31 45.75828 13.14841 16869 ft 356 kts 354°
2026-05-06 12:31 45.78310 13.15309 17655 ft 367 kts 16°
2026-05-06 12:32 45.80602 13.16981 18391 ft 375 kts 38°
2026-05-06 12:32 45.82296 13.19751 19072 ft 377 kts 64°
2026-05-06 12:32 45.83078 13.23333 19751 ft 372 kts 89°
2026-05-06 12:32 45.83147 13.27035 20454 ft 373 kts 95°
2026-05-06 12:33 45.83361 13.30778 21072 ft 386 kts 79°
2026-05-06 12:33 45.84504 13.34250 21707 ft 398 kts 53°
2026-05-06 12:33 45.86619 13.36886 22387 ft 402 kts 26°
2026-05-06 12:33 45.89261 13.38126 23053 ft 400 kts
2026-05-06 12:34 45.91983 13.38811 23681 ft 405 kts
2026-05-06 12:34 45.94775 13.39528 24239 ft 411 kts
2026-05-06 12:34 45.97598 13.40312 24839 ft 415 kts
2026-05-06 12:34 46.00439 13.41136 25409 ft 418 kts
2026-05-06 12:35 46.03299 13.41972 25959 ft 421 kts
2026-05-06 12:35 46.06182 13.42803 26480 ft 425 kts
2026-05-06 12:35 46.09095 13.43638 27007 ft 429 kts
2026-05-06 12:35 46.12026 13.44479 27546 ft 432 kts
2026-05-06 12:36 46.15003 13.45335 28091 ft 436 kts
2026-05-06 12:36 46.17985 13.46195 28641 ft 439 kts
2026-05-06 12:36 46.20999 13.47065 29090 ft 444 kts
2026-05-06 12:36 46.24040 13.47952 29591 ft 448 kts
2026-05-06 12:37 46.27104 13.48864 30120 ft 451 kts
2026-05-06 12:37 46.30179 13.49784 30529 ft 453 kts
2026-05-06 12:37 46.33284 13.50713 30928 ft 457 kts
2026-05-06 12:37 46.36414 13.51647 31283 ft 461 kts
2026-05-06 12:38 46.39573 13.52121 31651 ft 452 kts 349°
2026-05-06 12:38 46.42603 13.51331 32050 ft 437 kts 334°
2026-05-06 12:38 46.45332 13.49559 32475 ft 424 kts 319°
2026-05-06 12:38 46.47715 13.47107 32868 ft 419 kts 314°
2026-05-06 12:39 46.50040 13.44565 33273 ft 420 kts 314°
2026-05-06 12:39 46.52406 13.42039 33561 ft 424 kts 315°
2026-05-06 12:39 46.54788 13.39490 33832 ft 425 kts 311°
2026-05-06 12:39 46.56932 13.36586 34025 ft 417 kts 302°
2026-05-06 12:40 46.58636 13.33238 34238 ft 410 kts 294°
2026-05-06 12:40 46.60175 13.29729 34471 ft 412 kts 294°
2026-05-06 12:40 46.61711 13.26207 34775 ft 413 kts 295°
2026-05-06 12:40 46.63251 13.22692 35152 ft 412 kts 295°
2026-05-06 12:41 46.64796 13.19186 35481 ft 412 kts 295°
2026-05-06 12:41 46.66349 13.15676 35787 ft 413 kts 296°
2026-05-06 12:41 46.67909 13.12154 35905 ft 418 kts 296°
2026-05-06 12:41 46.69498 13.08569 35915 ft 424 kts 296°
2026-05-06 12:42 46.72705 13.01340 35899 ft 423 kts 296°
2026-05-06 12:42 46.75877 12.94189 35908 ft 417 kts 296°
2026-05-06 12:43 46.79019 12.87078 35888 ft 417 kts 296°
2026-05-06 12:43 46.82151 12.79965 35882 ft 417 kts 296°
2026-05-06 12:44 46.85287 12.72822 35899 ft 419 kts 295°
2026-05-06 12:44 46.88444 12.65608 35869 ft 423 kts 295°
2026-05-06 12:45 46.91601 12.58381 35875 ft 426 kts 296°
2026-05-06 12:46 46.96384 12.47406 35858 ft 426 kts 295°
2026-05-06 12:46 46.99560 12.40091 35826 ft 424 kts 295°
2026-05-06 12:47 47.02688 12.32876 35881 ft 417 kts 295°
2026-05-06 12:47 47.05787 12.25689 35836 ft 417 kts 295°
2026-05-06 12:48 47.08899 12.18457 35821 ft 421 kts 295°
2026-05-06 12:48 47.12030 12.11164 35799 ft 423 kts 295°
2026-05-06 12:49 47.15176 12.03818 35810 ft 426 kts 295°
2026-05-06 12:49 47.18336 11.96425 35799 ft 428 kts 294°
2026-05-06 12:50 47.21481 11.88995 35786 ft 427 kts 292°
2026-05-06 12:50 47.24286 11.81343 35773 ft 424 kts 289°
2026-05-06 12:51 47.26957 11.73616 35774 ft 423 kts 289°
2026-05-06 12:51 47.29635 11.65910 35820 ft 423 kts 289°
2026-05-06 12:52 47.32339 11.58182 35781 ft 425 kts 290°
2026-05-06 12:52 47.35053 11.50437 35796 ft 426 kts 290°
2026-05-06 12:53 47.37786 11.42617 35783 ft 430 kts 290°
2026-05-06 12:53 47.40522 11.34781 35763 ft 429 kts 289°
2026-05-06 12:54 47.43239 11.26975 35771 ft 426 kts 290°
2026-05-06 12:54 47.45928 11.19219 35742 ft 424 kts 290°
2026-05-06 12:55 47.48607 11.11463 35728 ft 423 kts 290°
2026-05-06 12:55 47.51270 11.03731 35745 ft 422 kts 290°
2026-05-06 12:56 47.53928 10.95989 35746 ft 423 kts 289°
2026-05-06 12:56 47.56576 10.88254 35764 ft 425 kts 290°
2026-05-06 12:57 47.59248 10.80427 35755 ft 427 kts 290°
2026-05-06 12:57 47.61930 10.72549 35766 ft 429 kts 290°
2026-05-06 12:58 47.64615 10.64638 35779 ft 430 kts 290°
2026-05-06 12:58 47.67304 10.56691 35780 ft 431 kts 290°
2026-05-06 12:59 47.69992 10.48720 35775 ft 433 kts 290°
2026-05-06 12:59 47.72685 10.40716 35769 ft 433 kts 290°
2026-05-06 13:00 47.75300 10.32696 35778 ft 428 kts 286°
2026-05-06 13:00 47.77455 10.24507 35778 ft 424 kts 284°
2026-05-06 13:01 47.79546 10.16314 35780 ft 423 kts 284°
2026-05-06 13:01 47.81681 10.08164 35800 ft 423 kts 285°
2026-05-06 13:02 47.84316 10.00250 35797 ft 435 kts 298°
2026-05-06 13:02 47.88488 9.93568 35797 ft 448 kts 313°
2026-05-06 13:03 47.93274 9.87589 35783 ft 450 kts 314°
2026-05-06 13:03 47.98066 9.81571 35776 ft 450 kts 313°
2026-05-06 13:04 48.02830 9.75461 35779 ft 452 kts 313°
2026-05-06 13:04 48.07563 9.69359 35772 ft 454 kts 313°
2026-05-06 13:05 48.12241 9.63028 35782 ft 452 kts 310°
2026-05-06 13:05 48.16742 9.56455 35781 ft 452 kts 309°
2026-05-06 13:06 48.21229 9.49850 35789 ft 452 kts 309°
2026-05-06 13:06 48.25738 9.43248 35816 ft 453 kts 310°
2026-05-06 13:07 48.29529 9.37713 35811 ft 454 kts 310°
2026-05-06 13:07 48.34052 9.31105 35797 ft 453 kts 310°
2026-05-06 13:08 48.38537 9.24536 35806 ft 453 kts 310°
2026-05-06 13:08 48.43045 9.17914 35805 ft 453 kts 309°
2026-05-06 13:09 48.47546 9.11283 35805 ft 452 kts 309°
2026-05-06 13:09 48.52038 9.04648 35789 ft 452 kts 310°
2026-05-06 13:10 48.56520 8.98011 35785 ft 451 kts 310°
2026-05-06 13:10 48.60998 8.91361 35785 ft 451 kts 310°
2026-05-06 13:11 48.65466 8.84710 35805 ft 452 kts 309°
2026-05-06 13:11 48.69966 8.77988 35792 ft 455 kts 310°
2026-05-06 13:12 48.74464 8.71258 35817 ft 455 kts 310°
2026-05-06 13:12 48.78956 8.64519 35807 ft 454 kts 310°
2026-05-06 13:13 48.83431 8.57789 35799 ft 452 kts 310°
2026-05-06 13:13 48.87874 8.51087 35805 ft 450 kts 310°
2026-05-06 13:14 48.92306 8.44384 35814 ft 449 kts 310°
2026-05-06 13:14 48.96734 8.37667 35780 ft 449 kts 310°
2026-05-06 13:15 49.01142 8.30964 35802 ft 447 kts 310°
2026-05-06 13:15 49.05531 8.24273 35800 ft 446 kts 310°
2026-05-06 13:16 49.09911 8.17577 35804 ft 446 kts 310°
2026-05-06 13:16 49.14291 8.10862 35802 ft 446 kts 310°
2026-05-06 13:17 49.18647 8.04165 35792 ft 447 kts 310°
2026-05-06 13:17 49.23061 7.97363 35808 ft 448 kts 311°
2026-05-06 13:18 49.27425 7.90620 35792 ft 450 kts 311°
2026-05-06 13:18 49.31827 7.83801 35776 ft 450 kts 311°
2026-05-06 13:19 49.36232 7.76959 35781 ft 451 kts 311°
2026-05-06 13:19 49.40635 7.70101 35774 ft 451 kts 311°
2026-05-06 13:20 49.45040 7.63221 35780 ft 451 kts 311°
2026-05-06 13:20 49.49441 7.56329 35786 ft 452 kts 311°
2026-05-06 13:21 49.53840 7.49420 35797 ft 453 kts 311°
2026-05-06 13:21 49.58244 7.42485 35786 ft 453 kts 311°
2026-05-06 13:22 49.62648 7.35530 35789 ft 453 kts 311°
2026-05-06 13:22 49.67048 7.28564 35786 ft 453 kts 311°
2026-05-06 13:23 49.71436 7.21597 35805 ft 452 kts 311°
2026-05-06 13:23 49.75792 7.14662 35795 ft 453 kts 311°
2026-05-06 13:24 49.80172 7.07669 35797 ft 452 kts 311°
2026-05-06 13:24 49.84547 7.00664 35781 ft 453 kts 310°
2026-05-06 13:25 49.88923 6.93639 35790 ft 452 kts 310°
2026-05-06 13:25 49.93279 6.86626 35792 ft 451 kts 310°
2026-05-06 13:26 49.97622 6.79615 35804 ft 450 kts 311°
2026-05-06 13:26 50.01947 6.72612 35801 ft 449 kts 311°
2026-05-06 13:27 50.06273 6.65589 35794 ft 449 kts 310°
2026-05-06 13:27 50.10583 6.58571 35790 ft 448 kts 310°
2026-05-06 13:28 50.14890 6.51541 35779 ft 448 kts 310°
2026-05-06 13:28 50.19148 6.44457 35776 ft 446 kts 306°
2026-05-06 13:29 50.22789 6.36649 35807 ft 444 kts 301°
2026-05-06 13:29 50.26270 6.28660 35800 ft 445 kts 301°
2026-05-06 13:30 50.29776 6.20687 35828 ft 445 kts 302°
2026-05-06 13:30 50.33312 6.12733 35822 ft 445 kts 302°
2026-05-06 13:31 50.36856 6.04777 35836 ft 445 kts 302°
2026-05-06 13:31 50.40394 5.96811 35848 ft 445 kts 302°
2026-05-06 13:32 50.43902 5.88889 35841 ft 445 kts 302°
2026-05-06 13:32 50.47425 5.80905 35846 ft 444 kts 302°
2026-05-06 13:33 50.50937 5.72923 35864 ft 444 kts 302°
2026-05-06 13:33 50.54436 5.64943 35853 ft 443 kts 302°
2026-05-06 13:34 50.57928 5.56958 35862 ft 443 kts 302°
2026-05-06 13:34 50.59671 5.52963 35701 ft 442 kts 302°
2026-05-06 13:34 50.61405 5.48981 35220 ft 439 kts 302°
2026-05-06 13:34 50.63129 5.45019 34671 ft 438 kts 302°
2026-05-06 13:35 50.64846 5.41066 34106 ft 437 kts 302°
2026-05-06 13:35 50.66563 5.37105 33436 ft 438 kts 303°
2026-05-06 13:35 50.68268 5.33166 32745 ft 437 kts 303°
2026-05-06 13:35 50.69979 5.29207 32084 ft 436 kts 303°
2026-05-06 13:36 50.71687 5.25250 31410 ft 436 kts 303°
2026-05-06 13:36 50.73391 5.21296 30751 ft 435 kts 303°
2026-05-06 13:36 50.75087 5.17356 30251 ft 431 kts 303°
2026-05-06 13:36 50.76763 5.13460 29738 ft 427 kts 303°
2026-05-06 13:37 50.78421 5.09596 29182 ft 422 kts 302°
2026-05-06 13:37 50.80013 5.05746 28690 ft 415 kts 298°
2026-05-06 13:37 50.81228 5.01647 28198 ft 407 kts 288°
2026-05-06 13:37 50.82057 4.97402 27718 ft 401 kts 285°
2026-05-06 13:38 50.82831 4.93192 27224 ft 397 kts 285°
2026-05-06 13:38 50.83593 4.89026 26761 ft 392 kts 285°
2026-05-06 13:38 50.84356 4.84903 26290 ft 388 kts 285°
2026-05-06 13:38 50.85119 4.80827 25819 ft 384 kts 285°
2026-05-06 13:39 50.85878 4.76792 25365 ft 381 kts 285°
2026-05-06 13:39 50.86634 4.72791 24918 ft 378 kts 285°
2026-05-06 13:39 50.87382 4.68825 24478 ft 375 kts 285°
2026-05-06 13:39 50.88124 4.64884 24026 ft 372 kts 285°
2026-05-06 13:40 50.88858 4.60975 23588 ft 369 kts 285°
2026-05-06 13:40 50.89586 4.57091 23082 ft 366 kts 285°
2026-05-06 13:40 50.90433 4.53304 22577 ft 364 kts 294°
2026-05-06 13:40 50.91657 4.49826 22134 ft 360 kts 301°
2026-05-06 13:41 50.92975 4.46476 21685 ft 358 kts 301°
2026-05-06 13:41 50.94296 4.43143 21247 ft 356 kts 301°
2026-05-06 13:41 50.95609 4.39811 20804 ft 358 kts 301°
2026-05-06 13:41 50.96936 4.36418 20371 ft 365 kts 301°
2026-05-06 13:42 50.98257 4.33018 19928 ft 366 kts 301°
2026-05-06 13:42 50.99582 4.29598 19469 ft 362 kts 301°
2026-05-06 13:42 51.00889 4.26210 19025 ft 358 kts 301°
2026-05-06 13:42 51.02181 4.22857 18588 ft 354 kts 301°
2026-05-06 13:43 51.03456 4.19540 18156 ft 350 kts 301°
2026-05-06 13:43 51.04721 4.16246 17659 ft 347 kts 301°
2026-05-06 13:43 51.05971 4.12991 17201 ft 343 kts 301°
2026-05-06 13:43 51.07207 4.09764 16773 ft 339 kts 301°
2026-05-06 13:44 51.08427 4.06579 16357 ft 336 kts 301°
2026-05-06 13:44 51.09810 4.03615 15928 ft 333 kts 311°
2026-05-06 13:44 51.11503 4.01131 15512 ft 330 kts 322°
2026-05-06 13:44 51.13340 3.98967 15114 ft 327 kts 323°
2026-05-06 13:45 51.15172 3.96848 14709 ft 324 kts 323°
2026-05-06 13:45 51.18770 3.92630 13917 ft 318 kts 322°
2026-05-06 13:45 51.20540 3.90529 13492 ft 316 kts 322°
2026-05-06 13:46 51.22305 3.88454 13049 ft 314 kts 326°
2026-05-06 13:46 51.24299 3.87093 12645 ft 313 kts 347°
2026-05-06 13:46 51.26453 3.86800 12279 ft 312 kts 358°
2026-05-06 13:46 51.28641 3.86771 11877 ft 315 kts 358°
2026-05-06 13:47 51.30842 3.86765 11475 ft 318 kts 359°
2026-05-06 13:47 51.33069 3.86743 11063 ft 322 kts 358°
2026-05-06 13:47 51.35307 3.86702 10647 ft 320 kts 358°
2026-05-06 13:47 51.37514 3.86650 10327 ft 313 kts 358°
2026-05-06 13:48 51.39650 3.86598 10192 ft 301 kts 358°
2026-05-06 13:48 51.41688 3.86978 10036 ft 292 kts 18°
2026-05-06 13:48 51.43462 3.88434 9940 ft 283 kts 32°
2026-05-06 13:48 51.45007 3.90327 9664 ft 280 kts 46°
2026-05-06 13:49 51.46074 3.92915 9429 ft 277 kts 60°
2026-05-06 13:49 51.46923 3.95624 9362 ft 266 kts 62°
2026-05-06 13:49 51.47716 3.98244 9279 ft 256 kts 62°
2026-05-06 13:49 51.48467 4.00735 9158 ft 249 kts 62°
2026-05-06 13:50 51.49220 4.03273 8893 ft 247 kts 62°
2026-05-06 13:50 51.49957 4.05766 8608 ft 247 kts 62°
2026-05-06 13:50 51.50686 4.08223 8347 ft 246 kts 62°
2026-05-06 13:50 51.51423 4.10733 8091 ft 245 kts 62°
2026-05-06 13:51 51.52132 4.13172 7849 ft 243 kts 62°
2026-05-06 13:51 51.52849 4.15627 7594 ft 242 kts 62°
2026-05-06 13:51 51.53570 4.18101 7374 ft 240 kts 62°
2026-05-06 13:51 51.54264 4.20494 7132 ft 239 kts 62°
2026-05-06 13:52 51.54970 4.22911 6876 ft 239 kts 62°
2026-05-06 13:52 51.55673 4.25311 6645 ft 237 kts 62°
2026-05-06 13:52 51.56366 4.27706 6419 ft 236 kts 62°
2026-05-06 13:52 51.57055 4.30095 6170 ft 235 kts 62°
2026-05-06 13:53 51.57758 4.32454 5934 ft 233 kts 56°
2026-05-06 13:53 51.58883 4.34222 5667 ft 226 kts 24°
2026-05-06 13:53 51.60392 4.34690 5395 ft 223 kts 353°
2026-05-06 13:53 51.61816 4.33759 5089 ft 226 kts 326°
2026-05-06 13:54 51.63053 4.32220 4873 ft 224 kts 323°
2026-05-06 13:54 51.64261 4.30630 4683 ft 224 kts 322°
2026-05-06 13:54 51.65468 4.29033 4471 ft 224 kts 322°
2026-05-06 13:54 51.66665 4.27436 4414 ft 226 kts 322°
2026-05-06 13:55 51.67884 4.25802 4379 ft 227 kts 322°
2026-05-06 13:55 51.69090 4.24172 4379 ft 225 kts 322°
2026-05-06 13:55 51.70284 4.22561 4379 ft 223 kts 322°
2026-05-06 13:55 51.71465 4.20966 4374 ft 221 kts 322°
2026-05-06 13:56 51.72245 4.19912 4377 ft 221 kts 322°
2026-05-06 13:56 51.73426 4.18326 4381 ft 221 kts 322°
2026-05-06 13:56 51.74600 4.16752 4372 ft 216 kts 322°
2026-05-06 13:56 51.75718 4.15224 4371 ft 203 kts 322°
2026-05-06 13:57 51.76753 4.13782 4263 ft 192 kts 322°
2026-05-06 13:57 51.77779 4.12497 4093 ft 182 kts 338°
2026-05-06 13:57 51.78970 4.12304 3947 ft 173 kts 18°
2026-05-06 13:57 51.80027 4.13205 3868 ft 174 kts 31°
2026-05-06 13:58 51.81062 4.14286 3732 ft 179 kts 32°
2026-05-06 13:58 51.82107 4.15386 3606 ft 178 kts 32°
2026-05-06 13:58 51.83132 4.16462 3476 ft 172 kts 32°
2026-05-06 13:58 51.84112 4.17489 3344 ft 164 kts 32°
2026-05-06 13:59 51.85049 4.18467 3217 ft 157 kts 32°
2026-05-06 13:59 51.85845 4.19613 3072 ft 153 kts 52°
2026-05-06 13:59 51.86463 4.21012 2957 ft 154 kts 52°
2026-05-06 13:59 51.87074 4.22445 2828 ft 156 kts 54°
2026-05-06 14:00 51.87668 4.23906 2750 ft 153 kts 54°
2026-05-06 14:00 51.88259 4.25386 2590 ft 159 kts 54°
2026-05-06 14:00 51.88858 4.26891 2386 ft 159 kts 54°
2026-05-06 14:00 51.89456 4.28393 2166 ft 158 kts 54°
2026-05-06 14:01 51.90052 4.29890 1945 ft 158 kts 54°
2026-05-06 14:01 51.90645 4.31380 1735 ft 156 kts 55°
2026-05-06 14:01 51.91218 4.32820 1549 ft 150 kts 54°
2026-05-06 14:01 51.91784 4.34239 1329 ft 149 kts 53°
2026-05-06 14:02 51.92352 4.35662 1118 ft 151 kts 54°
2026-05-06 14:02 51.92899 4.37038 933 ft 140 kts 54°
2026-05-06 14:02 51.93399 4.38291 721 ft 127 kts 54°
2026-05-06 14:02 51.93872 4.39478 577 ft 125 kts 55°
2026-05-06 14:03 51.94335 4.40641 420 ft 122 kts 56°
2026-05-06 14:03 51.94808 4.41831 225 ft 128 kts 56°
2026-05-06 14:03 51.95291 4.43031 40 ft 126 kts 56°
2026-05-06 14:03 51.95728 4.44123 -6 ft 95 kts 57°
2026-05-06 14:04 51.95919 4.44599 -6 ft 45 kts 57°
2026-05-06 14:04 51.96016 4.44843 -6 ft 17 kts 57°
2026-05-06 14:04 51.96080 4.45002 -6 ft 16 kts 57°
2026-05-06 14:04 51.96134 4.45134 -6 ft 13 kts 56°
2026-05-06 14:05 51.96156 4.45270 -6 ft 13 kts 101°
2026-05-06 14:05 51.96107 4.45385 -6 ft 12 kts 144°
2026-05-06 14:05 51.96031 4.45366 -6 ft 12 kts 226°
2026-05-06 14:05 51.95983 4.45255 -6 ft 12 kts 237°
2026-05-06 14:06 51.95939 4.45144 -6 ft 12 kts 238°
2026-05-06 14:06 51.95896 4.45035 -6 ft 11 kts 237°
2026-05-06 14:06 51.95854 4.44930 -6 ft 11 kts 237°
2026-05-06 14:06 51.95814 4.44830 -6 ft 11 kts 237°
2026-05-06 14:07 51.95773 4.44729 -6 ft 10 kts 237°
2026-05-06 14:07 51.95735 4.44633 -6 ft 11 kts 237°
2026-05-06 14:07 51.95695 4.44534 -6 ft 11 kts 237°
2026-05-06 14:07 51.95655 4.44433 -6 ft 11 kts 237°
2026-05-06 14:08 51.95616 4.44335 -6 ft 10 kts 238°
2026-05-06 14:08 51.95578 4.44240 -6 ft 10 kts 236°
2026-05-06 14:08 51.95540 4.44147 -6 ft 10 kts 237°
2026-05-06 14:08 51.95495 4.44035 -6 ft 15 kts 237°
2026-05-06 14:09 51.95426 4.43862 -6 ft 21 kts 237°
2026-05-06 14:09 51.95343 4.43656 -6 ft 22 kts 236°
2026-05-06 14:09 51.95287 4.43519 -6 ft 11 kts 237°
2026-05-06 14:09 51.95263 4.43458 -6 ft 4 kts 231°
2026-05-06 14:10 51.95235 4.43450 -6 ft 4 kts 166°
2026-05-06 14:10 51.95206 4.43475 -6 ft 5 kts 149°
2026-05-06 14:10 51.95182 4.43496 -6 ft 1 kts 167°
2026-05-06 14:10 51.95173 4.43492 -6 ft 3 kts 200°
2026-05-06 14:11 51.95158 4.43469 -6 ft 2 kts 237°
2026-05-06 14:11 51.95159 4.43443 -6 ft 2 kts 301°
2026-05-06 14:11 51.95172 4.43423 -6 ft 3 kts 323°
2026-05-06 14:11 51.95184 4.43410 -6 ft 1 kts 326°
2026-05-06 14:12 51.95190 4.43404 -6 ft 0 kts 326°